Weather in Castries

Saint Lucia     14°00′35″N   60°59′18″W
temp.,
°C
wind,
m/s
gust,
m/s
humid.,
%
clouds,
%
prec.,
mm/h
press.,
hPa
HPBL,
m
13 april, tue
tue1323:00+25ese5885100 0.1 1013564
02:00+25ese478755 1.0 1012468
05:00+25ese478795 0.0 1012433
08:00+27ese577924 0.1 1014773
11:00+29ese576746 0.0 1014612
14:00+29se5667100 0.1 1012600
17:00+28ese567399 0.1 1011543
20:00+26ese478415 0.1 1013540
14 april, wed
wed1423:00+26ese4688100 0.1 1014454
02:00+26se4684100 0.2 1012537
05:00+26se3583100 0.1 1013543
08:00+27ese4680100 0.6 1014669
11:00+29se4569100 0.3 1014542
14:00+29se4670100 0.4 1012577
17:00+28se5675100 0.6 1011506
20:00+26se3681100 0.6 1013503
15 april, thu
thu1523:00+26ese358137 0.0 1014360
02:00+25ese3581100 0.0 1012349
05:00+25ese3679100 0.0 1013355
08:00+27ese4570100 0.0 1014864
11:00+28ese566169 0.0 1015642
14:00+29ese5561100 0.0 1013783
17:00+27e566898 0.0 1012733
20:00+26e577527 0.0 1014574
16 april, fri
fri1623:00+25e6877100 0.0 1015651
02:00+25e688037 0.0 1013719
05:00+25e698085 0.1 1013693
08:00+26e687495 0.1 1015976
11:00+28e7867100 0.1 1015885
14:00+28e7863100 0.1 1013880
17:00+27e7868100 0.0 1013855
20:00+26e697526 0.1 1015815
17 april, sat
sat1723:00+26e6970100 0.0 1015988
02:00+25e6973100 0.1 1014842
05:00+26e6874100 0.1 1015762
08:00+27e6871100 0.3 10171039
11:00+28e7961100 0.1 1016969
14:00+28e785936 0.1 1015885
17:00+27e786931 0.0 1014969
20:00+26e5877100 0.1 1016651